Zurück zum Katalog

QIANFAN-32

AktivKommunikationPO
NORAD 61565·PAYLOAD·🇨🇳 China

Gestartet Oct 15, 2024 von Taiyuan Satellite Launch Center

Loading…

Nächste Überflüge (nächste 24 Stunden)

TLE

AktuellSource: Space-Track

Epoche: Sep 14, 2026, 12:57 UTC

1 61565U 24185P   26257.53979855  .00000113  00000-0  15637-3 0  9996
2 61565  88.9854  52.6469 0009421   2.0991 358.0198 13.50805410105272

Verfolge QIANFAN-32 in Echtzeit mit AllMySat

Download on the App Store